QPF
0.11 0.14 0.17 0.15 0.14 0.15 0.16 0.17 0.14 0.11 0.11 0.14 0.18 0.18 0.15 0.15 0.14 0.12 0.12 0.14 0.18 0.17 0.14 0.10 0.07 0.06 0.04 0.04 0.04 0.04 0.04 0.04 0.05 0.05 0.05 0.06 0.07 0.08
0.14 0.13 0.13 0.10 0.10 0.11 0.12 0.14 0.16 0.15 0.15 0.14 0.15 0.16 0.16 0.16 0.15 0.12 0.14 0.17 0.18 0.18 0.16 0.12 0.10 0.08 0.06 0.05 0.05 0.05 0.05 0.05 0.05 0.05 0.05 0.05 0.06 0.06
0.19 0.15 0.13 0.12 0.13 0.14 0.14 0.14 0.15 0.15 0.13 0.11 0.12 0.13 0.14 0.13 0.16 0.15 0.15 0.17 0.17 0.18 0.17 0.13 0.12 0.11 0.11 0.10 0.08 0.07 0.07 0.06 0.05 0.05 0.05 0.05 0.05 0.05
0.17 0.16 0.16 0.17 0.18 0.17 0.15 0.14 0.13 0.13 0.12 0.10 0.10 0.11 0.11 0.12 0.15 0.14 0.13 0.13 0.13 0.16 0.17 0.16 0.15 0.14 0.13 0.13 0.12 0.10 0.09 0.08 0.07 0.07 0.07 0.07 0.07 0.07
0.12 0.12 0.12 0.12 0.13 0.13 0.12 0.10 0.09 0.09 0.10 0.09 0.08 0.09 0.09 0.09 0.11 0.09 0.11 0.12 0.13 0.14 0.17 0.19 0.18 0.16 0.15 0.14 0.12 0.11 0.09 0.08 0.08 0.09 0.10 0.09 0.09 0.08
0.14 0.13 0.11 0.09 0.08 0.10 0.10 0.07 0.06 0.07 0.06 0.07 0.06 0.06 0.06 0.07 0.08 0.08 0.09 0.11 0.11 0.12 0.13 0.12 0.12 0.12 0.12 0.11 0.11 0.12 0.12 0.11 0.10 0.09 0.10 0.11 0.13 0.15
0.12 0.14 0.16 0.14 0.10 0.09 0.10 0.09 0.09 0.08 0.07 0.08 0.07 0.06 0.05 0.06 0.05 0.04 0.05 0.07 0.07 0.08 0.07 0.07 0.07 0.07 0.07 0.08 0.09 0.10 0.11 0.13 0.15 0.16 0.18 0.19 0.20 0.20
0.06 0.08 0.12 0.13 0.11 0.11 0.12 0.10 0.08 0.07 0.07 0.07 0.07 0.06 0.05 0.04 0.04 0.04 0.04 0.04 0.05 0.06 0.08 0.09 0.08 0.07 0.06 0.06 0.07 0.07 0.08 0.10 0.13 0.16 0.17 0.18 0.18 0.17
0.04 0.05 0.07 0.08 0.07 0.06 0.06 0.05 0.05 0.04 0.04 0.04 0.04 0.04 0.03 0.03 0.03 0.03 0.03 0.04 0.05 0.06 0.07 0.08 0.07 0.07 0.07 0.07 0.09 0.08 0.08 0.09 0.10 0.10 0.11 0.11 0.11 0.10
0.03 0.03 0.03 0.03 0.04 0.04 0.03 0.03 0.02 0.02 0.02 0.02 0.02 0.02 0.02 0.02 0.02 0.02 0.02 0.03 0.04 0.05 0.05 0.06 0.06 0.07 0.08 0.08 0.09 0.08 0.07 0.06 0.05 0.05 0.05 0.05 0.05 0.06
0.02 0.02 0.02 0.02 0.04 0.04 0.02 0.01 0.01 0.01 0.01 0.01 0.01 0.01 0.01 0.01 0.01 0.02 0.03 0.04 0.06 0.07 0.08 0.09 0.10 0.09 0.09 0.08 0.07 0.07 0.06 0.05 0.04 0.03 0.03 0.03 0.03 0.04
0.01 0.02 0.03 0.03 0.02 0.02 0.01 0.01 0.01 0.01 0.01 0.01 0.01 0.01 0.01 0.01 0.01 0.01 0.02 0.03 0.04 0.07 0.08 0.07 0.07 0.07 0.07 0.07 0.06 0.05 0.03 0.03 0.02 0.02 0.01 0.01 0.01 0.02
0.02 0.02 0.02 0.01 0.01 0.01 0.01 0.01 0.01 0.01 0.01 0.01 0.01 0.01 0.01 0.01 0.01 0.01 0.01 0.02 0.02 0.03 0.04 0.03 0.04 0.04 0.03 0.03 0.03 0.03 0.03 0.02 0.02 0.02 0.01 0.02 0.01 0.01
0.00 0.00 0.00 0.00 0.00 0.00 0.00 0.00 0.01 0.01 0.01 0.02 0.01 0.01 0.01 0.00 0.00 0.00 0.00 0.00 0.00 0.01 0.01 0.01 0.01 0.01 0.01 0.01 0.02 0.02 0.02 0.03 0.03 0.02 0.02 0.02 0.01 0.01
0.00 0.00 0.00 0.00 0.00 0.00 0.00 0.00 0.00 0.01 0.01 0.01 0.01 0.01 0.00 0.00 0.00 0.00 0.00 0.00 0.00 0.00 0.00 0.00 0.00 0.00 0.00 0.00 0.01 0.01 0.02 0.02 0.02 0.02 0.02 0.03 0.02 0.02
0.00 0.00 0.00 0.00 0.00 0.00 0.00 0.00 0.00 0.00 0.01 0.01 0.01 0.01 0.01 0.00 0.00 0.00 0.00 0.00 0.00 0.00 0.00 0.00 0.00 0.00 0.00 0.00 0.00 0.00 0.01 0.01 0.01 0.02 0.02 0.03 0.03 0.03
0.00 0.00 0.00 0.00 0.00 0.00 0.00 0.00 0.00 0.00 0.00 0.00 0.00 0.00 0.00 0.00 0.00 0.00 0.00 0.00 0.00 0.00 0.00 0.00 0.00 0.00 0.00 0.00 0.00 0.00 0.00 0.00 0.01 0.01 0.01 0.01 0.01 0.01
0.00 0.00 0.00 0.00 0.00 0.00 0.00 0.00 0.00 0.00 0.00 0.00 0.00 0.00 0.00 0.00 0.00 0.00 0.00 0.00 0.00 0.00 0.00 0.00 0.00 0.00 0.00 0.00 0.00 0.00 0.00 0.00 0.01 0.01 0.01 0.01 0.01 0.01
0.00 0.00 0.00 0.00 0.00 0.00 0.00 0.00 0.00 0.00 0.00 0.00 0.00 0.00 0.00 0.00 0.00 0.00 0.00 0.00 0.00 0.00 0.00 0.00 0.00 0.00 0.00 0.00 0.00 0.00 0.00 0.00 0.00 0.00 0.00 0.00 0.01 0.01
0.00 0.00 0.00 0.00 0.00 0.00 0.00 0.00 0.00 0.00 0.00 0.00 0.00 0.00 0.00 0.00 0.00 0.00 0.00 0.00 0.00 0.00 0.00 0.00 0.00 0.00 0.00 0.00 0.00 0.00 0.00 0.00 0.00 0.00 0.00 0.00 0.01 0.01
0.00 0.00 0.00 0.00 0.00 0.00 0.00 0.00 0.00 0.00 0.00 0.00 0.00 0.00 0.00 0.00 0.00 0.00 0.00 0.00 0.00 0.00 0.00 0.00 0.00 0.00 0.00 0.00 0.00 0.00 0.00 0.00 0.00 0.01 0.01 0.01 0.01 0.01
0.00 0.00 0.00 0.00 0.00 0.00 0.00 0.00 0.00 0.00 0.00 0.00 0.00 0.00 0.00 0.00 0.00 0.00 0.00 0.00 0.00 0.00 0.00 0.00 0.00 0.00 0.00 0.00 0.00 0.00 0.00 0.00 0.00 0.00 0.00 0.00 0.01 0.00
0.00 0.00 0.00 0.00 0.00 0.00 0.00 0.00 0.00 0.00 0.00 0.00 0.00 0.00 0.00 0.00 0.00 0.00 0.00 0.00 0.00 0.00 0.00 0.00 0.00 0.00 0.00 0.00 0.00 0.00 0.00 0.00 0.00 0.00 0.00 0.00 0.00 0.00
MSLP
1015.27 1015.56 1015.87 1016.16 1016.35 1016.42 1016.34 1016.11 1015.77 1015.36 1014.92 1014.52 1014.18 1013.91 1013.74 1013.63 1013.59 1013.58 1013.60 1013.64 1013.71 1013.82 1013.98 1014.20 1014.47 1014.79 1015.15 1015.52 1015.90 1016.25 1016.58 1016.87 1017.12 1017.35 1017.55 1017.73 1017.89 1018.05
1015.02 1015.25 1015.51 1015.73 1015.88 1015.91 1015.80 1015.56 1015.23 1014.84 1014.45 1014.10 1013.82 1013.63 1013.52 1013.49 1013.51 1013.56 1013.62 1013.69 1013.76 1013.86 1013.99 1014.16 1014.39 1014.67 1015.00 1015.36 1015.74 1016.11 1016.48 1016.84 1017.17 1017.49 1017.78 1018.06 1018.32 1018.56
1015.03 1015.18 1015.35 1015.50 1015.57 1015.54 1015.39 1015.13 1014.80 1014.45 1014.11 1013.83 1013.64 1013.54 1013.54 1013.61 1013.72 1013.85 1013.98 1014.09 1014.19 1014.30 1014.42 1014.57 1014.76 1015.00 1015.29 1015.62 1015.98 1016.36 1016.75 1017.14 1017.53 1017.91 1018.28 1018.64 1018.98 1019.29
1015.29 1015.36 1015.43 1015.48 1015.47 1015.37 1015.17 1014.89 1014.57 1014.24 1013.96 1013.76 1013.66 1013.67 1013.78 1013.96 1014.17 1014.40 1014.61 1014.79 1014.95 1015.08 1015.22 1015.36 1015.53 1015.74 1015.99 1016.29 1016.61 1016.97 1017.35 1017.74 1018.15 1018.57 1018.98 1019.39 1019.79 1020.15
1015.75 1015.73 1015.72 1015.68 1015.59 1015.42 1015.17 1014.87 1014.56 1014.26 1014.03 1013.90 1013.89 1013.99 1014.20 1014.48 1014.80 1015.12 1015.42 1015.69 1015.91 1016.10 1016.27 1016.44 1016.61 1016.81 1017.03 1017.29 1017.57 1017.89 1018.23 1018.59 1018.98 1019.39 1019.80 1020.23 1020.64 1021.02
1016.33 1016.25 1016.17 1016.06 1015.90 1015.68 1015.40 1015.08 1014.77 1014.50 1014.32 1014.24 1014.29 1014.46 1014.75 1015.10 1015.50 1015.91 1016.29 1016.64 1016.95 1017.21 1017.44 1017.65 1017.85 1018.06 1018.27 1018.50 1018.74 1019.00 1019.28 1019.58 1019.92 1020.27 1020.66 1021.05 1021.44 1021.81
1016.94 1016.83 1016.71 1016.56 1016.36 1016.11 1015.81 1015.49 1015.19 1014.94 1014.78 1014.73 1014.82 1015.04 1015.36 1015.76 1016.20 1016.67 1017.11 1017.53 1017.91 1018.26 1018.56 1018.84 1019.09 1019.32 1019.55 1019.76 1019.96 1020.17 1020.38 1020.61 1020.86 1021.14 1021.46 1021.79 1022.14 1022.47
1017.52 1017.41 1017.28 1017.12 1016.91 1016.64 1016.35 1016.04 1015.75 1015.52 1015.38 1015.35 1015.44 1015.66 1015.99 1016.39 1016.85 1017.33 1017.82 1018.28 1018.72 1019.13 1019.51 1019.85 1020.17 1020.45 1020.70 1020.92 1021.10 1021.26 1021.41 1021.56 1021.73 1021.92 1022.15 1022.41 1022.69 1022.97
1018.03 1017.94 1017.82 1017.67 1017.48 1017.23 1016.96 1016.67 1016.41 1016.20 1016.07 1016.04 1016.13 1016.33 1016.62 1017.00 1017.43 1017.89 1018.37 1018.85 1019.32 1019.78 1020.21 1020.62 1021.00 1021.33 1021.62 1021.85 1022.04 1022.17 1022.27 1022.36 1022.46 1022.57 1022.72 1022.90 1023.12 1023.35
1018.44 1018.38 1018.30 1018.19 1018.03 1017.82 1017.59 1017.34 1017.11 1016.93 1016.81 1016.78 1016.85 1017.02 1017.27 1017.58 1017.96 1018.37 1018.80 1019.26 1019.72 1020.19 1020.66 1021.11 1021.53 1021.92 1022.24 1022.51 1022.70 1022.84 1022.92 1022.97 1023.01 1023.07 1023.16 1023.29 1023.45 1023.63
1018.77 1018.76 1018.72 1018.64 1018.53 1018.38 1018.19 1018.00 1017.82 1017.67 1017.58 1017.55 1017.61 1017.73 1017.93 1018.18 1018.47 1018.81 1019.17 1019.57 1019.99 1020.43 1020.89 1021.35 1021.80 1022.22 1022.58 1022.88 1023.10 1023.25 1023.34 1023.39 1023.41 1023.45 1023.50 1023.60 1023.73 1023.88
1019.05 1019.07 1019.07 1019.04 1018.97 1018.87 1018.75 1018.61 1018.48 1018.38 1018.33 1018.32 1018.37 1018.47 1018.61 1018.80 1019.01 1019.26 1019.54 1019.85 1020.20 1020.58 1021.00 1021.44 1021.88 1022.30 1022.69 1023.01 1023.27 1023.45 1023.57 1023.64 1023.68 1023.72 1023.78 1023.86 1023.98 1024.13
1019.29 1019.34 1019.37 1019.38 1019.35 1019.30 1019.23 1019.15 1019.08 1019.03 1019.02 1019.04 1019.10 1019.19 1019.31 1019.44 1019.58 1019.74 1019.93 1020.15 1020.41 1020.71 1021.06 1021.45 1021.85 1022.26 1022.65 1022.99 1023.28 1023.50 1023.66 1023.77 1023.85 1023.92 1024.00 1024.10 1024.23 1024.37
1019.51 1019.57 1019.63 1019.66 1019.66 1019.65 1019.62 1019.59 1019.58 1019.59 1019.62 1019.69 1019.77 1019.87 1019.97 1020.07 1020.17 1020.26 1020.36 1020.49 1020.66 1020.87 1021.14 1021.45 1021.80 1022.18 1022.55 1022.90 1023.20 1023.46 1023.66 1023.82 1023.95 1024.07 1024.18 1024.31 1024.45 1024.61
1019.71 1019.78 1019.84 1019.88 1019.90 1019.90 1019.90 1019.91 1019.95 1020.00 1020.09 1020.20 1020.33 1020.45 1020.56 1020.65 1020.72 1020.77 1020.81 1020.87 1020.95 1021.08 1021.26 1021.50 1021.79 1022.12 1022.46 1022.80 1023.11 1023.39 1023.63 1023.84 1024.01 1024.17 1024.32 1024.48 1024.63 1024.79
1019.87 1019.94 1020.00 1020.03 1020.05 1020.06 1020.08 1020.11 1020.18 1020.27 1020.40 1020.56 1020.73 1020.88 1021.02 1021.12 1021.19 1021.22 1021.23 1021.24 1021.27 1021.33 1021.44 1021.62 1021.85 1022.12 1022.42 1022.74 1023.05 1023.34 1023.60 1023.83 1024.04 1024.22 1024.40 1024.57 1024.72 1024.87
1019.98 1020.04 1020.08 1020.11 1020.11 1020.12 1020.14 1020.18 1020.27 1020.39 1020.56 1020.75 1020.95 1021.15 1021.32 1021.45 1021.53 1021.57 1021.58 1021.57 1021.57 1021.59 1021.66 1021.79 1021.96 1022.19 1022.45 1022.74 1023.03 1023.31 1023.57 1023.81 1024.02 1024.22 1024.39 1024.56 1024.70 1024.83
1020.01 1020.06 1020.09 1020.10 1020.10 1020.09 1020.11 1020.15 1020.24 1020.38 1020.57 1020.78 1021.02 1021.25 1021.45 1021.62 1021.73 1021.79 1021.82 1021.82 1021.82 1021.84 1021.89 1021.98 1022.13 1022.32 1022.54 1022.79 1023.05 1023.31 1023.55 1023.77 1023.97 1024.15 1024.30 1024.44 1024.56 1024.65
1019.97 1020.01 1020.03 1020.03 1020.01 1020.00 1020.01 1020.06 1020.15 1020.30 1020.49 1020.72 1020.97 1021.22 1021.45 1021.64 1021.79 1021.89 1021.95 1021.98 1022.00 1022.03 1022.08 1022.17 1022.29 1022.46 1022.65 1022.87 1023.09 1023.31 1023.52 1023.70 1023.87 1024.01 1024.13 1024.23 1024.31 1024.36
1019.85 1019.89 1019.91 1019.91 1019.90 1019.89 1019.90 1019.95 1020.04 1020.19 1020.39 1020.62 1020.87 1021.13 1021.37 1021.58 1021.75 1021.88 1021.97 1022.03 1022.09 1022.14 1022.21 1022.31 1022.43 1022.58 1022.75 1022.94 1023.12 1023.29 1023.46 1023.60 1023.72 1023.82 1023.90 1023.95 1023.99 1023.99
1019.68 1019.73 1019.76 1019.77 1019.78 1019.78 1019.81 1019.88 1019.98 1020.12 1020.31 1020.53 1020.77 1021.02 1021.25 1021.46 1021.64 1021.79 1021.91 1022.00 1022.09 1022.17 1022.27 1022.38 1022.50 1022.65 1022.80 1022.95 1023.10 1023.24 1023.36 1023.45 1023.53 1023.59 1023.63 1023.65 1023.64 1023.61
1019.49 1019.56 1019.61 1019.65 1019.69 1019.73 1019.79 1019.87 1019.98 1020.13 1020.31 1020.51 1020.73 1020.95 1021.15 1021.35 1021.52 1021.66 1021.79 1021.90 1022.01 1022.11 1022.23 1022.35 1022.48 1022.62 1022.76 1022.89 1023.01 1023.12 1023.20 1023.27 1023.32 1023.35 1023.36 1023.35 1023.32 1023.28
1019.31 1019.40 1019.49 1019.57 1019.65 1019.74 1019.84 1019.95 1020.08 1020.23 1020.39 1020.57 1020.75 1020.93 1021.09 1021.24 1021.38 1021.51 1021.63 1021.74 1021.85 1021.97 1022.09 1022.23 1022.36 1022.50 1022.63 1022.74 1022.85 1022.93 1023.00 1023.04 1023.08 1023.10 1023.10 1023.09 1023.07 1023.02
Thickness
5740 5739 5738 5738 5738 5736 5734 5730 5723 5718 5718 5722 5723 5726 5726 5726 5725 5724 5722 5721 5719 5717 5715 5712 5710 5708 5705 5703 5702 5700 5698 5697 5695 5694 5693 5691 5690 5688
5737 5735 5734 5734 5733 5733 5732 5729 5726 5720 5716 5718 5718 5719 5720 5720 5719 5718 5716 5715 5714 5712 5709 5707 5705 5702 5700 5698 5695 5693 5692 5690 5689 5687 5686 5684 5683 5681
5733 5731 5730 5730 5729 5728 5727 5725 5722 5719 5713 5713 5713 5713 5713 5712 5712 5711 5710 5707 5705 5703 5702 5700 5698 5696 5694 5691 5689 5687 5685 5683 5681 5680 5678 5677 5675 5674
5727 5726 5725 5725 5723 5722 5721 5719 5717 5715 5711 5706 5706 5705 5704 5704 5704 5703 5701 5699 5697 5695 5694 5693 5691 5688 5686 5683 5681 5679 5677 5675 5673 5671 5670 5668 5667 5665
5721 5720 5719 5719 5717 5716 5715 5713 5711 5710 5707 5702 5699 5698 5697 5696 5695 5694 5692 5690 5688 5686 5685 5683 5681 5678 5676 5673 5671 5669 5667 5666 5664 5662 5660 5658 5656 5654
5715 5714 5713 5712 5710 5709 5708 5706 5705 5702 5700 5696 5692 5690 5688 5688 5686 5683 5680 5679 5677 5676 5673 5671 5669 5667 5664 5662 5660 5658 5656 5654 5652 5650 5648 5646 5644 5642
5708 5707 5706 5705 5704 5702 5701 5698 5697 5694 5691 5688 5683 5681 5678 5676 5674 5673 5670 5668 5666 5664 5661 5659 5656 5654 5651 5649 5647 5645 5644 5641 5639 5637 5635 5633 5631 5628
5700 5699 5698 5697 5696 5694 5693 5691 5690 5686 5682 5679 5674 5671 5668 5667 5665 5664 5660 5657 5653 5651 5649 5644 5642 5640 5638 5636 5634 5632 5630 5628 5625 5623 5621 5619 5617 5615
5693 5691 5691 5689 5687 5685 5683 5682 5680 5678 5676 5672 5667 5663 5661 5659 5657 5654 5650 5646 5642 5639 5637 5632 5629 5626 5625 5622 5620 5618 5616 5614 5611 5608 5606 5604 5603 5601
5685 5683 5681 5679 5678 5676 5674 5671 5669 5667 5665 5663 5660 5656 5654 5651 5648 5644 5640 5636 5632 5629 5626 5620 5616 5613 5611 5609 5607 5604 5602 5599 5597 5594 5592 5590 5589 5587
5676 5674 5672 5670 5668 5667 5665 5662 5659 5656 5655 5653 5650 5647 5645 5642 5640 5635 5630 5625 5619 5616 5614 5609 5603 5600 5598 5595 5593 5591 5588 5586 5583 5581 5579 5577 5575 5573
5667 5665 5663 5661 5659 5658 5655 5652 5648 5645 5643 5642 5639 5636 5634 5631 5629 5625 5620 5614 5608 5604 5602 5598 5593 5588 5584 5582 5580 5577 5575 5572 5570 5568 5566 5564 5561 5559
5659 5656 5654 5653 5650 5648 5646 5642 5639 5636 5633 5630 5626 5624 5621 5619 5616 5613 5610 5605 5599 5594 5592 5589 5583 5578 5573 5569 5567 5565 5563 5560 5558 5555 5553 5551 5549 5547
5650 5648 5646 5644 5642 5639 5636 5633 5631 5627 5623 5618 5614 5610 5608 5605 5603 5601 5598 5595 5591 5586 5583 5579 5573 5568 5563 5558 5555 5553 5551 5548 5545 5543 5541 5539 5536 5534
5643 5641 5638 5636 5633 5629 5626 5623 5620 5615 5611 5606 5601 5598 5596 5594 5592 5589 5586 5583 5579 5576 5572 5568 5563 5558 5553 5547 5543 5540 5538 5536 5534 5531 5528 5525 5523 5520
5634 5632 5629 5626 5622 5618 5615 5611 5608 5604 5599 5594 5590 5587 5585 5582 5578 5575 5571 5567 5563 5560 5559 5555 5551 5547 5541 5536 5532 5528 5525 5523 5521 5519 5516 5513 5510 5508
5625 5621 5617 5613 5609 5605 5602 5599 5596 5593 5588 5584 5579 5575 5572 5568 5565 5562 5558 5553 5548 5543 5541 5540 5538 5534 5530 5525 5520 5516 5513 5511 5509 5507 5504 5500 5498 5496
5616 5610 5605 5601 5597 5593 5590 5587 5583 5579 5576 5572 5568 5564 5559 5556 5552 5549 5545 5540 5535 5531 5528 5526 5524 5520 5516 5513 5510 5506 5502 5500 5498 5496 5493 5489 5486 5485
5606 5600 5595 5591 5587 5583 5579 5575 5571 5568 5565 5561 5557 5553 5549 5545 5541 5537 5533 5528 5524 5520 5517 5514 5511 5507 5502 5498 5498 5497 5493 5491 5488 5485 5483 5480 5477 5476
5596 5590 5586 5582 5578 5574 5570 5565 5561 5558 5554 5550 5546 5542 5538 5534 5529 5525 5521 5517 5513 5510 5507 5505 5501 5498 5494 5490 5488 5487 5486 5483 5480 5477 5474 5471 5469 5468
5586 5582 5578 5574 5569 5565 5560 5555 5551 5547 5543 5539 5535 5531 5527 5523 5519 5515 5512 5509 5504 5500 5497 5495 5494 5493 5489 5484 5479 5478 5478 5477 5474 5471 5468 5464 5462 5459
5577 5573 5568 5564 5560 5555 5550 5545 5541 5536 5532 5528 5524 5521 5517 5513 5510 5506 5502 5499 5495 5492 5490 5488 5487 5484 5480 5476 5472 5470 5469 5469 5468 5467 5465 5462 5457 5454
5568 5564 5559 5554 5550 5545 5540 5535 5530 5525 5521 5518 5514 5511 5508 5504 5500 5497 5494 5490 5487 5484 5482 5479 5477 5475 5472 5469 5466 5463 5463 5461 5459 5458 5458 5458 5457 5455